7 * 24
多渠道服务支持
STARLINK-4064是美国SpaceX公司星链(Starlink)低轨互联网星座的组成卫星,于2022年5月18日发射升空。作为星链第二代组网卫星,它运行在近地轨道,搭载Ku/Ka波段通信载荷与霍尔推进器,具备自主避撞能力,旨在为全球提供高速低延迟卫星互联网服务,填补偏远地区网络覆盖空白,是星链大规模星座部署中的一颗量产型卫星,设计寿命约5-7年,退役后将受控坠入大气层焚毁。
美国
(US)
| 数据来源 | 国际轨道数据 |
| 星历时间: | 2026-09-12T11:03:44+0800 5小时前 查看轨道信息 |
| 半长轴: | 6917.893km |
| 偏心率: | 0.0001126 |
| 轨道倾角: | 53.162° |
| 近地点辐角 | 94.511° |
| 升交点赤经 | 36.555° |
| 平近点角 | 265.601° |
| 近地点: | 538.977km |
| 远地点: | 540.535km |
| 周期: | 95.438分钟 |
| 每日圈数: | 15.08836 |